| time (UTC) | temp F | wind direction | speed MPH | gust MPH | rain 1hr in | rain 24hr in | rain mn in | humidity % | barometer mb |
| 20260510202703 | 80 | 74 | 2.0 | 4.0 | 0.00 | 0.00 | 0.00 | 69 | 1017.2 |
| 20260510201805 | 80 | 100 | 2.0 | 4.0 | 0.00 | 0.00 | 0.00 | 68 | 1017.2 |
| 20260510200905 | 80 | 188 | 2.0 | 5.0 | 0.00 | 0.00 | 0.00 | 70 | 1017.2 |
| 20260510200005 | 79 | 116 | 2.0 | 6.0 | 0.00 | 0.00 | 0.00 | 69 | 1017.4 |
| 20260510195405 | 80 | 22 | 2.0 | 4.0 | 0.00 | 0.00 | 0.00 | 70 | 1017.4 |
| 20260510194505 | 79 | 338 | 1.0 | 4.0 | 0.00 | 0.00 | 0.00 | 71 | 1017.4 |
| 20260510193604 | 78 | 215 | 1.0 | 4.0 | 0.00 | 0.00 | 0.00 | 71 | 1017.5 |
| 20260510192705 | 78 | 163 | 2.0 | 5.0 | 0.00 | 0.00 | 0.00 | 70 | 1017.6 |
| 20260510191805 | 78 | 298 | 3.0 | 5.0 | 0.00 | 0.00 | 0.00 | 69 | 1017.8 |
| 20260510190926 | 78 | 303 | 2.0 | 5.0 | 0.00 | 0.00 | 0.00 | 71 | 1017.8 |
| 20260510190005 | 77 | 352 | 2.0 | 5.0 | 0.00 | 0.00 | 0.00 | 72 | 1017.8 |
| 20260510185426 | 77 | 64 | 2.0 | 5.0 | 0.00 | 0.00 | 0.00 | 72 | 1018.0 |
| 20260510184504 | 78 | 62 | 1.0 | 4.0 | 0.00 | 0.00 | 0.00 | 73 | 1018.0 |
| 20260510183604 | 78 | 63 | 2.0 | 4.0 | 0.00 | 0.00 | 0.00 | 73 | 1018.1 |
| 20260510182704 | 78 | 142 | 2.0 | 6.0 | 0.00 | 0.00 | 0.00 | 71 | 1018.2 |
| 20260510181805 | 78 | 235 | 3.0 | 6.0 | 0.00 | 0.00 | 0.00 | 73 | 1018.3 |
| 20260510180905 | 77 | 207 | 3.0 | 6.0 | 0.00 | 0.00 | 0.00 | 74 | 1018.2 |
| 20260510180005 | 77 | 98 | 2.0 | 6.0 | 0.00 | 0.00 | 0.00 | 76 | 1018.3 |
| 20260510175404 | 77 | 93 | 2.0 | 7.0 | 0.00 | 0.00 | 0.00 | 75 | 1018.4 |
| 20260510174504 | 77 | 332 | 2.0 | 5.0 | 0.00 | 0.00 | 0.00 | 75 | 1018.5 |
| 20260510173604 | 77 | 280 | 2.0 | 5.0 | 0.00 | 0.00 | 0.00 | 76 | 1018.6 |
| 20260510172704 | 76 | 213 | 1.0 | 4.0 | 0.00 | 0.00 | 0.00 | 79 | 1018.6 |
| 20260510171804 | 75 | 183 | 1.0 | 3.0 | 0.00 | 0.00 | 0.00 | 82 | 1018.7 |
| 20260510170904 | 74 | 74 | 1.0 | 3.0 | 0.00 | 0.00 | 0.00 | 81 | 1018.7 |
| 20260510170004 | 74 | 60 | 2.0 | 5.0 | 0.00 | 0.00 | 0.00 | 82 | 1018.9 |
| 20260510165404 | 74 | 41 | 2.0 | 5.0 | 0.00 | 0.00 | 0.00 | 81 | 1019.0 |
| 20260510164504 | 75 | 359 | 2.0 | 5.0 | 0.00 | 0.00 | 0.00 | 81 | 1018.9 |
| 20260510163604 | 74 | 286 | 1.0 | 3.0 | 0.00 | 0.00 | 0.00 | 83 | 1019.1 |
| 20260510162704 | 73 | 297 | 2.0 | 5.0 | 0.00 | 0.00 | 0.00 | 85 | 1019.3 |
| 20260510161804 | 73 | 325 | 3.0 | 6.0 | 0.00 | 0.00 | 0.00 | 85 | 1019.2 |
| 20260510160925 | 73 | 353 | 2.0 | 5.0 | 0.00 | 0.00 | 0.00 | 87 | 1019.2 |
| 20260510160025 | 72 | 329 | 2.0 | 4.0 | 0.00 | 0.00 | 0.00 | 90 | 1019.2 |
| 20260510155425 | 72 | 349 | 1.0 | 4.0 | 0.00 | 0.00 | 0.00 | 89 | 1019.2 |
| 20260510154504 | 71 | 111 | 2.0 | 4.0 | 0.00 | 0.00 | 0.00 | 91 | 1019.3 |
| 20260510153604 | 70 | 135 | 2.0 | 5.0 | 0.00 | 0.01 | 0.00 | 93 | 1019.3 |
| 20260510152704 | 70 | 140 | 1.0 | 4.0 | 0.00 | 0.02 | 0.00 | 95 | 1019.4 |
| 20260510151804 | 69 | 143 | 1.0 | 4.0 | 0.00 | 0.03 | 0.00 | 96 | 1019.3 |
| 20260510150904 | 68 | 121 | 2.0 | 5.0 | 0.00 | 0.03 | 0.00 | 98 | 1019.3 |
| 20260510150004 | 68 | 106 | 1.0 | 3.0 | 0.00 | 0.03 | 0.00 | 100 | 1019.3 |
| 20260510145425 | 68 | 69 | 0.0 | 3.0 | 0.00 | 0.04 | 0.00 | 100 | 1019.2 |
| 20260510144525 | 67 | 64 | 0.0 | 2.0 | 0.00 | 0.04 | 0.00 | 100 | 1019.3 |
| 20260510143604 | 66 | 55 | 1.0 | 3.0 | 0.00 | 0.05 | 0.00 | 100 | 1019.4 |
| 20260510142704 | 66 | 66 | 0.0 | 2.0 | 0.00 | 0.06 | 0.00 | 100 | 1019.3 |
| 20260510141804 | 66 | 15 | 0.0 | 2.0 | 0.00 | 0.07 | 0.00 | 100 | 1019.2 |
| 20260510140904 | 66 | 337 | 1.0 | 3.0 | 0.00 | 0.08 | 0.00 | 100 | 1019.2 |
| 20260510140004 | 65 | 33 | 1.0 | 4.0 | 0.00 | 0.09 | 0.00 | 100 | 1018.9 |
| 20260510135424 | 65 | 38 | 1.0 | 4.0 | 0.00 | 0.10 | 0.00 | 100 | 1018.7 |
| 20260510134504 | 65 | 341 | 1.0 | 4.0 | 0.00 | 0.13 | 0.00 | 100 | 1018.6 |
| 20260510133603 | 65 | 18 | 1.0 | 3.0 | 0.00 | 0.17 | 0.00 | 100 | 1018.5 |
| 20260510132704 | 65 | 2 | 1.0 | 3.0 | 0.00 | 0.18 | 0.00 | 100 | 1018.5 |
| 20260510131804 | 64 | 40 | 1.0 | 3.0 | 0.00 | 0.19 | 0.00 | 100 | 1018.5 |
| 20260510130904 | 64 | 13 | 1.0 | 4.0 | 0.00 | 0.20 | 0.00 | 100 | 1018.5 |
| 20260510130004 | 64 | 46 | 1.0 | 4.0 | 0.00 | 0.21 | 0.00 | 100 | 1018.5 |
| 20260510125403 | 64 | 15 | 0.0 | 2.0 | 0.00 | 0.22 | 0.00 | 100 | 1018.5 |
| 20260510124503 | 64 | 341 | 1.0 | 2.0 | 0.00 | 0.24 | 0.00 | 100 | 1018.6 |
| 20260510123603 | 65 | 359 | 0.0 | 2.0 | 0.00 | 0.27 | 0.00 | 100 | 1018.5 |
| 20260510122704 | 65 | 20 | 0.0 | 2.0 | 0.00 | 0.31 | 0.00 | 100 | 1018.5 |
| 20260510121803 | 64 | 50 | 0.0 | 2.0 | 0.00 | 0.33 | 0.00 | 100 | 1018.3 |
| 20260510120904 | 64 | 68 | 0.0 | 1.0 | 0.00 | 0.34 | 0.00 | 100 | 1018.3 |
| 20260510120024 | 64 | 68 | 0.0 | 1.0 | 0.00 | 0.35 | 0.00 | 100 | 1018.2 |
| 20260510115403 | 64 | 68 | 0.0 | 1.0 | 0.00 | 0.36 | 0.00 | 100 | 1018.1 |
| 20260510114503 | 64 | 62 | 0.0 | 1.0 | 0.00 | 0.39 | 0.00 | 100 | 1018.0 |
| 20260510113603 | 64 | 19 | 0.0 | 1.0 | 0.00 | 0.41 | 0.00 | 100 | 1017.9 |
| 20260510112703 | 64 | 356 | 0.0 | 2.0 | 0.00 | 0.45 | 0.00 | 100 | 1017.7 |
| 20260510111805 | 64 | 252 | 0.0 | 2.0 | 0.00 | 0.47 | 0.00 | 100 | 1017.6 |
| 20260510110905 | 64 | 0 | 0.0 | 0.0 | 0.00 | 0.49 | 0.00 | 100 | 1017.0 |
| 20260510110005 | 64 | 238 | 0.0 | 1.0 | 0.00 | 0.51 | 0.00 | 100 | 1016.9 |
| 20260510105405 | 64 | 237 | 0.0 | 2.0 | 0.00 | 0.52 | 0.00 | 100 | 1016.9 |
| 20260510104505 | 64 | 213 | 0.0 | 2.0 | 0.00 | 0.55 | 0.00 | 100 | 1016.7 |
| 20260510103605 | 64 | 207 | 1.0 | 3.0 | 0.00 | 0.56 | 0.00 | 100 | 1016.7 |
| 20260510102705 | 63 | 189 | 0.0 | 2.0 | 0.00 | 0.56 | 0.00 | 100 | 1016.5 |
| 20260510101826 | 63 | 180 | 0.0 | 2.0 | 0.00 | 0.56 | 0.00 | 100 | 1016.4 |
| 20260510100905 | 63 | 175 | 0.0 | 2.0 | 0.00 | 0.57 | 0.00 | 100 | 1016.3 |
| 20260510100005 | 63 | 148 | 0.0 | 2.0 | 0.00 | 0.58 | 0.00 | 100 | 1016.1 |
| 20260510095405 | 63 | 83 | 0.0 | 1.0 | 0.00 | 0.58 | 0.00 | 100 | 1016.1 |
| 20260510094504 | 63 | 83 | 0.0 | 1.0 | 0.00 | 0.59 | 0.00 | 100 | 1016.0 |
| 20260510093605 | 64 | 0 | 0.0 | 0.0 | 0.00 | 0.64 | 0.00 | 100 | 1015.8 |
| 20260510092726 | 64 | 83 | 0.0 | 1.0 | 0.00 | 0.72 | 0.00 | 100 | 1015.8 |
| 20260510091804 | 64 | 99 | 1.0 | 2.0 | 0.00 | 0.73 | 0.00 | 100 | 1015.7 |
| 20260510090925 | 64 | 119 | 1.0 | 2.0 | 0.00 | 0.73 | 0.00 | 100 | 1015.8 |
| 20260510090005 | 64 | 43 | 0.0 | 2.0 | 0.00 | 0.73 | 0.00 | 100 | 1015.8 |
| 20260510085405 | 64 | 43 | 0.0 | 2.0 | 0.00 | 0.73 | 0.00 | 100 | 1015.6 |
| 20260510084505 | 64 | 43 | 0.0 | 2.0 | 0.00 | 0.73 | 0.00 | 100 | 1015.6 |
| 20260510083604 | 64 | 43 | 0.0 | 1.0 | 0.00 | 0.73 | 0.00 | 100 | 1015.5 |
| 20260510082705 | 65 | 43 | 0.0 | 1.0 | 0.00 | 0.73 | 0.00 | 100 | 1015.4 |
| 20260510081825 | 65 | 43 | 0.0 | 1.0 | 0.00 | 0.73 | 0.00 | 100 | 1015.3 |
| 20260510080905 | 65 | 43 | 0.0 | 2.0 | 0.00 | 0.73 | 0.00 | 100 | 1015.2 |
| 20260510080004 | 65 | 44 | 0.0 | 1.0 | 0.00 | 0.73 | 0.00 | 100 | 1015.1 |
| 20260510075426 | 65 | 43 | 0.0 | 2.0 | 0.00 | 0.73 | 0.00 | 100 | 1015.2 |
| 20260510074504 | 65 | 31 | 0.0 | 2.0 | 0.00 | 0.73 | 0.00 | 100 | 1015.0 |
| 20260510073625 | 65 | 21 | 0.0 | 1.0 | 0.00 | 0.73 | 0.00 | 100 | 1014.8 |
| 20260510072704 | 65 | 0 | 0.0 | 0.0 | 0.00 | 0.73 | 0.00 | 100 | 1014.8 |
| 20260510071804 | 64 | 159 | 0.0 | 1.0 | 0.00 | 0.73 | 0.00 | 100 | 1014.6 |
| 20260510070925 | 64 | 0 | 0.0 | 0.0 | 0.00 | 0.73 | 0.00 | 100 | 1014.7 |
| 20260510070005 | 64 | 0 | 0.0 | 0.0 | 0.00 | 0.73 | 0.00 | 100 | 1014.9 |
| 20260510065404 | 64 | 0 | 0.0 | 0.0 | 0.00 | 0.73 | 0.00 | 100 | 1014.7 |
| 20260510064504 | 64 | 0 | 0.0 | 0.0 | 0.00 | 0.73 | 0.00 | 100 | 1014.7 |
| 20260510063604 | 64 | 0 | 0.0 | 0.0 | 0.00 | 0.73 | 0.00 | 100 | 1014.8 |
| 20260510062704 | 64 | 0 | 0.0 | 0.0 | 0.00 | 0.73 | 0.00 | 100 | 1014.9 |
| 20260510061804 | 64 | 0 | 0.0 | 0.0 | 0.00 | 0.73 | 0.00 | 100 | 1015.2 |
| 20260510060925 | 64 | 0 | 0.0 | 0.0 | 0.00 | 0.73 | 0.00 | 100 | 1015.4 |
| 20260510060025 | 64 | 0 | 0.0 | 0.0 | 0.00 | 0.73 | 0.00 | 100 | 1015.4 |
| 20260510055404 | 64 | 0 | 0.0 | 0.0 | 0.00 | 0.73 | 0.00 | 100 | 1015.5 |
| 20260510054504 | 64 | 0 | 0.0 | 0.0 | 0.00 | 0.73 | 0.00 | 100 | 1015.7 |
| 20260510053604 | 64 | 0 | 0.0 | 0.0 | 0.00 | 0.73 | 0.00 | 100 | 1015.8 |
| 20260510052704 | 64 | 0 | 0.0 | 0.0 | 0.00 | 0.73 | 0.00 | 100 | 1015.8 |
| 20260510051804 | 65 | 0 | 0.0 | 0.0 | 0.00 | 0.73 | 0.00 | 100 | 1015.8 |
| 20260510050904 | 65 | 0 | 0.0 | 0.0 | 0.00 | 0.73 | 0.00 | 100 | 1015.8 |
| 20260510050005 | 65 | 0 | 0.0 | 0.0 | 0.00 | 0.73 | 0.00 | 100 | 1015.8 |
| 20260510045404 | 65 | 0 | 0.0 | 0.0 | 0.00 | 0.73 | 0.73 | 100 | 1015.7 |
| 20260510044504 | 65 | 0 | 0.0 | 0.0 | 0.00 | 0.73 | 0.73 | 100 | 1015.8 |
| 20260510043604 | 65 | 0 | 0.0 | 0.0 | 0.00 | 0.73 | 0.73 | 100 | 1015.6 |
| 20260510042725 | 66 | 0 | 0.0 | 0.0 | 0.00 | 0.73 | 0.73 | 100 | 1015.6 |
| 20260510041825 | 66 | 0 | 0.0 | 0.0 | 0.00 | 0.73 | 0.73 | 100 | 1015.5 |
| 20260510040904 | 66 | 0 | 0.0 | 0.0 | 0.00 | 0.73 | 0.73 | 100 | 1015.6 |
| 20260510040004 | 66 | 0 | 0.0 | 0.0 | 0.00 | 0.73 | 0.73 | 99 | 1015.7 |
| 20260510035404 | 66 | 0 | 0.0 | 0.0 | 0.00 | 0.73 | 0.73 | 99 | 1015.6 |
| 20260510034504 | 66 | 0 | 0.0 | 0.0 | 0.00 | 0.73 | 0.73 | 99 | 1015.8 |
| 20260510033603 | 66 | 0 | 0.0 | 0.0 | 0.00 | 0.73 | 0.73 | 99 | 1015.9 |
| 20260510032704 | 66 | 0 | 0.0 | 0.0 | 0.00 | 0.73 | 0.73 | 99 | 1016.0 |
| 20260510031803 | 66 | 0 | 0.0 | 0.0 | 0.00 | 0.73 | 0.73 | 99 | 1016.0 |
| 20260510030904 | 66 | 0 | 0.0 | 0.0 | 0.00 | 0.73 | 0.73 | 99 | 1016.0 |
| 20260510030003 | 66 | 0 | 0.0 | 0.0 | 0.00 | 0.73 | 0.73 | 98 | 1015.9 |
| 20260510025403 | 67 | 0 | 0.0 | 0.0 | 0.00 | 0.73 | 0.73 | 99 | 1015.8 |
| 20260510024503 | 67 | 0 | 0.0 | 0.0 | 0.00 | 0.73 | 0.73 | 98 | 1015.8 |
| 20260510023624 | 67 | 159 | 0.0 | 1.0 | 0.00 | 0.73 | 0.73 | 98 | 1015.7 |
| 20260510022703 | 67 | 0 | 0.0 | 0.0 | 0.00 | 0.73 | 0.73 | 98 | 1015.6 |
| 20260510021803 | 67 | 159 | 0.0 | 1.0 | 0.00 | 0.73 | 0.73 | 98 | 1015.5 |
| 20260510020926 | 68 | 144 | 0.0 | 2.0 | 0.00 | 0.73 | 0.73 | 98 | 1015.4 |
| 20260510020005 | 68 | 147 | 0.0 | 1.0 | 0.00 | 0.73 | 0.73 | 97 | 1015.5 |
| 20260510015405 | 68 | 0 | 0.0 | 0.0 | 0.00 | 0.73 | 0.73 | 97 | 1015.7 |
| 20260510014506 | 68 | 0 | 0.0 | 0.0 | 0.00 | 0.73 | 0.73 | 97 | 1015.6 |
| 20260510013605 | 68 | 0 | 0.0 | 0.0 | 0.00 | 0.73 | 0.73 | 97 | 1015.3 |
| 20260510012705 | 68 | 147 | 0.0 | 1.0 | 0.00 | 0.73 | 0.73 | 97 | 1015.1 |
| 20260510011805 | 68 | 154 | 0.0 | 2.0 | 0.00 | 0.73 | 0.73 | 97 | 1014.8 |
| 20260510010905 | 68 | 199 | 0.0 | 1.0 | 0.00 | 0.73 | 0.73 | 96 | 1014.7 |
| 20260510010005 | 68 | 0 | 0.0 | 0.0 | 0.00 | 0.73 | 0.73 | 96 | 1014.6 |
| 20260510005405 | 68 | 213 | 0.0 | 1.0 | 0.00 | 0.73 | 0.73 | 96 | 1014.6 |
| 20260510004505 | 68 | 213 | 0.0 | 1.0 | 0.00 | 0.73 | 0.73 | 96 | 1014.5 |
| 20260510003605 | 68 | 213 | 0.0 | 1.0 | 0.00 | 0.73 | 0.73 | 96 | 1014.3 |
| 20260510002704 | 68 | 213 | 0.0 | 2.0 | 0.00 | 0.73 | 0.73 | 96 | 1014.2 |
| 20260510001805 | 68 | 200 | 0.0 | 3.0 | 0.00 | 0.73 | 0.73 | 96 | 1014.3 |
| 20260510000905 | 69 | 209 | 0.0 | 2.0 | 0.00 | 0.73 | 0.73 | 96 | 1014.2 |
| 20260510000005 | 69 | 207 | 0.0 | 3.0 | 0.00 | 0.73 | 0.73 | 96 | 1014.2 |
| 20260509235404 | 69 | 196 | 0.0 | 3.0 | 0.00 | 0.73 | 0.73 | 95 | 1014.2 |
| 20260509234504 | 69 | 204 | 0.0 | 3.0 | 0.00 | 0.73 | 0.73 | 95 | 1014.1 |
| 20260509233604 | 69 | 210 | 1.0 | 4.0 | 0.00 | 0.73 | 0.73 | 95 | 1014.1 |
| 20260509232704 | 69 | 199 | 1.0 | 4.0 | 0.00 | 0.73 | 0.73 | 95 | 1013.9 |
| 20260509231825 | 69 | 174 | 1.0 | 4.0 | 0.00 | 0.73 | 0.73 | 95 | 1013.7 |
| 20260509230904 | 69 | 183 | 1.0 | 4.0 | 0.00 | 0.73 | 0.73 | 95 | 1013.6 |
| 20260509230004 | 69 | 174 | 1.0 | 3.0 | 0.00 | 0.73 | 0.73 | 95 | 1013.7 |
| 20260509225404 | 69 | 182 | 1.0 | 3.0 | 0.00 | 0.73 | 0.73 | 95 | 1013.7 |
| 20260509224504 | 69 | 178 | 2.0 | 5.0 | 0.00 | 0.73 | 0.73 | 95 | 1013.7 |
| 20260509223604 | 69 | 191 | 1.0 | 4.0 | 0.00 | 0.73 | 0.73 | 95 | 1013.8 |
| 20260509222725 | 69 | 181 | 1.0 | 6.0 | 0.00 | 0.73 | 0.73 | 95 | 1013.5 |
| 20260509221825 | 69 | 174 | 2.0 | 5.0 | 0.00 | 0.73 | 0.73 | 95 | 1013.3 |
| 20260509220904 | 69 | 185 | 1.0 | 4.0 | 0.00 | 0.73 | 0.73 | 95 | 1013.2 |
| 20260509220004 | 69 | 154 | 2.0 | 5.0 | 0.00 | 0.73 | 0.73 | 96 | 1013.2 |
| 20260509215404 | 69 | 151 | 3.0 | 5.0 | 0.00 | 0.73 | 0.73 | 96 | 1013.2 |
| 20260509214504 | 69 | 146 | 3.0 | 6.0 | 0.00 | 0.73 | 0.73 | 95 | 1013.2 |
| 20260509213625 | 69 | 150 | 2.0 | 5.0 | 0.00 | 0.73 | 0.73 | 95 | 1013.1 |
| 20260509212704 | 69 | 136 | 2.0 | 4.0 | 0.00 | 0.73 | 0.73 | 95 | 1013.2 |
| 20260509211804 | 69 | 140 | 3.0 | 5.0 | 0.00 | 0.73 | 0.73 | 95 | 1013.1 |
| 20260509210904 | 69 | 150 | 3.0 | 6.0 | 0.00 | 0.73 | 0.73 | 95 | 1013.1 |
| 20260509210004 | 69 | 138 | 3.0 | 6.0 | 0.00 | 0.73 | 0.73 | 95 | 1013.1 |
| 20260509205425 | 69 | 125 | 2.0 | 5.0 | 0.00 | 0.73 | 0.73 | 95 | 1013.0 |
| 20260509204504 | 69 | 120 | 2.0 | 6.0 | 0.00 | 0.73 | 0.73 | 95 | 1012.9 |
| 20260509203625 | 69 | 108 | 2.0 | 4.0 | 0.00 | 0.73 | 0.73 | 95 | 1013.2 |